When you browse on this site, cookies collect data to enhance your experience and personalize the content and advertising you see.
Visit our Privacy Policy to learn more. By continuing to use the site, you agree to this use of cookies and data.
  • In Hungary
  • List of Countries
  • For 7 days
  • Water Temperature
  • Satellite Maps
  • Weather Map
  • News
  • Weather Widgets
  • user-avatar
    Login

    Hourly Weather Perehnoiv

    Today, 14 December, Friday

    Time Temperature Precipitation Wind Pressure Humidity
    00:00 -3°C° 0.1 mm 4 mps 743 mmHg 93%
    01:00 -2°C° 0.1 mm 3 mps 744 mmHg 93%
    02:00 -2°C° 0.1 mm 3 mps 744 mmHg 93%
    03:00 -2°C° 0.2 mm 3 mps 744 mmHg 94%
    04:00 -2°C° 0.2 mm 3 mps 744 mmHg 94%
    05:00 -2°C° 0.2 mm 3 mps 744 mmHg 94%
    06:00 -2°C° 0.1 mm 3 mps 745 mmHg 94%
    07:00 -2°C° 0.1 mm 3 mps 745 mmHg 95%
    08:00 -2°C° 0.1 mm 2 mps 745 mmHg 95%
    09:00 -2°C° 0.1 mm 2 mps 745 mmHg 94%
    10:00 -2°C° 0.1 mm 2 mps 746 mmHg 94%
    11:00 -1°C° 0.1 mm 2 mps 746 mmHg 93%
    12:00 -1°C° 0 mm 2 mps 746 mmHg 92%
    13:00 -1°C° 0 mm 2 mps 746 mmHg 92%
    14:00 -1°C° 0 mm 2 mps 746 mmHg 91%
    15:00 -1°C° 0.1 mm 2 mps 747 mmHg 92%
    16:00 -1°C° 0.1 mm 2 mps 747 mmHg 93%
    17:00 -2°C° 0.1 mm 2 mps 747 mmHg 94%
    18:00 -2°C° 0 mm 2 mps 747 mmHg 94%
    19:00 -2°C° 0 mm 2 mps 748 mmHg 94%
    20:00 -2°C° 0 mm 2 mps 748 mmHg 94%
    21:00 -3°C° 0 mm 2 mps 748 mmHg 93%
    22:00 -3°C° 0 mm 2 mps 748 mmHg 93%
    23:00 -3°C° 0 mm 2 mps 748 mmHg 93%

    Tomorrow, 15 December, Saturday

    Time Temperature Precipitation Wind Pressure Humidity
    00:00 -4°C° 0 mm 2 mps 749 mmHg 93%
    01:00 -4°C° 0 mm 2 mps 749 mmHg 93%
    02:00 -5°C° 0 mm 2 mps 749 mmHg 93%
    03:00 -5°C° 0 mm 2 mps 749 mmHg 94%
    04:00 -5°C° 0 mm 2 mps 749 mmHg 94%
    05:00 -5°C° 0 mm 2 mps 749 mmHg 95%
    06:00 -6°C° 0 mm 3 mps 749 mmHg 95%
    07:00 -6°C° 0 mm 3 mps 749 mmHg 94%
    08:00 -7°C° 0 mm 4 mps 749 mmHg 94%
    09:00 -5°C° 0 mm 4 mps 750 mmHg 91%
    10:00 -4°C° 0 mm 4 mps 750 mmHg 88%
    11:00 -5°C° 0 mm 5 mps 750 mmHg 85%
    12:00 -4°C° 0.1 mm 5 mps 750 mmHg 84%
    13:00 -4°C° 0.1 mm 5 mps 750 mmHg 82%
    14:00 -4°C° 0.1 mm 5 mps 749 mmHg 81%
    15:00 -4°C° 0 mm 5 mps 749 mmHg 83%
    16:00 -5°C° 0 mm 5 mps 749 mmHg 85%
    17:00 -5°C° 0 mm 5 mps 749 mmHg 87%
    18:00 -5°C° 0.1 mm 5 mps 749 mmHg 87%
    19:00 -5°C° 0.1 mm 6 mps 749 mmHg 87%
    20:00 -5°C° 0.1 mm 6 mps 749 mmHg 87%
    21:00 -5°C° 0.2 mm 6 mps 749 mmHg 87%
    22:00 -6°C° 0.2 mm 6 mps 749 mmHg 87%
    23:00 -6°C° 0.2 mm 6 mps 749 mmHg 87%

    Day after tomorrow, 16 December, Sunday

    Time Temperature Precipitation Wind Pressure Humidity
    00:00 -7°C° 0.2 mm 7 mps 748 mmHg 88%
    01:00 -7°C° 0.2 mm 7 mps 748 mmHg 88%
    02:00 -7°C° 0.2 mm 7 mps 748 mmHg 88%
    03:00 -7°C° 0.1 mm 7 mps 748 mmHg 88%
    04:00 -7°C° 0.1 mm 7 mps 747 mmHg 88%
    05:00 -7°C° 0.1 mm 7 mps 747 mmHg 88%
    06:00 -6°C° 0.1 mm 7 mps 747 mmHg 88%
    07:00 -6°C° 0.1 mm 7 mps 747 mmHg 89%
    08:00 -6°C° 0.1 mm 7 mps 747 mmHg 89%
    09:00 -6°C° 0.2 mm 7 mps 747 mmHg 89%
    10:00 -6°C° 0.2 mm 7 mps 747 mmHg 90%
    11:00 -6°C° 0.2 mm 7 mps 747 mmHg 90%
    12:00 -6°C° 0.2 mm 7 mps 747 mmHg 90%
    13:00 -4°C° 0.2 mm 7 mps 746 mmHg 90%
    14:00 -4°C° 0.2 mm 7 mps 746 mmHg 90%
    15:00 -4°C° 0.1 mm 7 mps 746 mmHg 90%
    16:00 -4°C° 0.1 mm 6 mps 746 mmHg 90%
    17:00 -4°C° 0.1 mm 6 mps 746 mmHg 90%
    18:00 -4°C° 0.1 mm 6 mps 746 mmHg 90%
    19:00 -4°C° 0.1 mm 6 mps 746 mmHg 90%
    20:00 -4°C° 0.1 mm 6 mps 746 mmHg 90%
    21:00 -4°C° 0.4 mm 6 mps 746 mmHg 91%
    22:00 -4°C° 0.4 mm 6 mps 746 mmHg 92%
    23:00 -4°C° 0.4 mm 6 mps 746 mmHg 93%

    17 December, Monday

    Time Temperature Precipitation Wind Pressure Humidity
    00:00 -4°C° 0.5 mm 6 mps 746 mmHg 93%
    01:00 -4°C° 0.5 mm 5 mps 746 mmHg 93%
    02:00 -4°C° 0.5 mm 5 mps 746 mmHg 94%
    03:00 -4°C° 0.2 mm 5 mps 746 mmHg 94%
    04:00 -3°C° 0.2 mm 4 mps 746 mmHg 94%
    05:00 -3°C° 0.2 mm 4 mps 746 mmHg 94%
    06:00 -3°C° 0.1 mm 4 mps 746 mmHg 94%
    07:00 -3°C° 0.1 mm 4 mps 746 mmHg 94%
    08:00 -3°C° 0.1 mm 4 mps 746 mmHg 94%
    09:00 -3°C° 0.2 mm 4 mps 746 mmHg 94%
    10:00 -3°C° 0.2 mm 4 mps 746 mmHg 95%
    11:00 -2°C° 0.2 mm 4 mps 746 mmHg 95%
    12:00 -1°C° 0.1 mm 3 mps 746 mmHg 95%
    13:00 -1°C° 0.1 mm 3 mps 746 mmHg 95%
    14:00 -1°C° 0.1 mm 3 mps 745 mmHg 96%
    15:00 -1°C° 0.2 mm 3 mps 745 mmHg 96%
    16:00 -2°C° 0.2 mm 3 mps 746 mmHg 96%
    17:00 -2°C° 0.2 mm 2 mps 746 mmHg 96%
    18:00 -2°C° 0.2 mm 2 mps 746 mmHg 96%
    19:00 -2°C° 0.2 mm 2 mps 746 mmHg 96%
    20:00 -2°C° 0.2 mm 2 mps 746 mmHg 96%
    21:00 -3°C° 0.5 mm 2 mps 746 mmHg 96%
    22:00 -3°C° 0.5 mm 2 mps 747 mmHg 96%
    23:00 -3°C° 0.5 mm 2 mps 747 mmHg 97%

    18 December, Tuesday

    Time Temperature Precipitation Wind Pressure Humidity
    00:00 -3°C° 0.3 mm 2 mps 747 mmHg 97%
    01:00 -3°C° 0.3 mm 2 mps 747 mmHg 97%
    02:00 -1°C° 0.3 mm 1 mps 747 mmHg 97%
    03:00 -1°C° 0.3 mm 1 mps 747 mmHg 97%
    04:00 -3°C° 0.3 mm 2 mps 748 mmHg 97%
    05:00 -3°C° 0.3 mm 2 mps 748 mmHg 97%
    06:00 -3°C° 0.2 mm 2 mps 748 mmHg 97%
    07:00 -3°C° 0.2 mm 2 mps 748 mmHg 96%
    08:00 -3°C° 0.2 mm 2 mps 749 mmHg 96%
    09:00 -3°C° 0.1 mm 2 mps 749 mmHg 96%
    10:00 -2°C° 0.1 mm 2 mps 749 mmHg 95%
    11:00 -2°C° 0.1 mm 2 mps 749 mmHg 94%
    12:00 -2°C° 0 mm 2 mps 749 mmHg 94%
    13:00 -2°C° 0 mm 2 mps 749 mmHg 94%
    14:00 -2°C° 0 mm 2 mps 749 mmHg 94%
    15:00 -2°C° 0 mm 2 mps 749 mmHg 94%
    16:00 -3°C° 0 mm 2 mps 749 mmHg 94%
    17:00 -2°C° 0 mm 1 mps 749 mmHg 95%
    18:00 -2°C° 0 mm 1 mps 749 mmHg 95%
    19:00 -3°C° 0 mm 1 mps 749 mmHg 95%
    20:00 -3°C° 0 mm 1 mps 750 mmHg 95%
    21:00 -3°C° 0 mm 1 mps 750 mmHg 95%
    22:00 -3°C° 0 mm 1 mps 750 mmHg 95%
    23:00 -3°C° 0 mm 1 mps 750 mmHg 95%

    19 December, Wednesday

    Time Temperature Precipitation Wind Pressure Humidity
    00:00 -3°C° 0 mm 1 mps 750 mmHg 95%
    01:00 -3°C° 0 mm 1 mps 749 mmHg 95%
    02:00 -3°C° 0 mm 1 mps 749 mmHg 95%
    03:00 -3°C° 0 mm 1 mps 749 mmHg 95%
    04:00 -3°C° 0 mm 1 mps 749 mmHg 95%
    05:00 -3°C° 0 mm 1 mps 749 mmHg 95%
    06:00 -4°C° 0 mm 1 mps 749 mmHg 95%
    07:00 -4°C° 0 mm 1 mps 749 mmHg 94%
    08:00 -6°C° 0 mm 2 mps 749 mmHg 94%
    09:00 -6°C° 0 mm 2 mps 749 mmHg 94%
    10:00 -5°C° 0 mm 2 mps 749 mmHg 93%
    11:00 -6°C° 0 mm 3 mps 749 mmHg 93%
    12:00 -5°C° 0 mm 3 mps 749 mmHg 93%
    13:00 -5°C° 0 mm 3 mps 749 mmHg 93%
    14:00 -5°C° 0 mm 3 mps 748 mmHg 93%
    15:00 -5°C° 0 mm 3 mps 748 mmHg 94%
    16:00 -6°C° 0 mm 3 mps 748 mmHg 94%
    17:00 -6°C° 0 mm 3 mps 748 mmHg 95%
    18:00 -6°C° 0 mm 3 mps 748 mmHg 95%
    19:00 -8°C° 0 mm 4 mps 748 mmHg 95%
    20:00 -8°C° 0 mm 4 mps 748 mmHg 95%
    21:00 -8°C° 0 mm 4 mps 748 mmHg 95%
    22:00 -7°C° 0 mm 4 mps 747 mmHg 94%
    23:00 -7°C° 0 mm 4 mps 747 mmHg 94%
    Show more